Hoolehua, HI

9:21 AM HST on December 07, 2016 (GMT -1000)
Molokai

Weather History for PHMK - February, 2013

Change the Weather History Date:

Monday, February 11, 2013

  Actual Average Record
Temperature  
Mean Temperature 72 °F -  
Max Temperature 75 °F 77 °F 82 °F (1980)
Min Temperature 68 °F 62 °F 53 °F (1987)
Cooling Degree Days 6    
Growing Degree Days 22 (Base 50)    
Moisture  
Dew Point 62 °F    
Average Humidity 77    
Maximum Humidity 84    
Minimum Humidity 68    
Precipitation  
Precipitation 0.00 in - - ()
Sea Level Pressure  
Sea Level Pressure 30.19 in    
Wind  
Wind Speed 13 mph (NE)    
Max Wind Speed 21 mph    
Max Gust Speed 31 mph    
Visibility 9 miles    
Events Rain    
Averages and records for this station are not official NWS values.
T = Trace of Precipitation, MM = Missing Value Source: NWS Daily Summary

Daily Weather History Graph

Daily Weather History Graph

Search for Another Location

Airport or City:

Trip Planner

Search our weather history database for the weather conditions in past years. The results will help you decide how hot, cold, wet, or windy it might be!

Date:

Astronomy

Feb. 11, 2013 Rise Set
Actual Time 7:00 AM HST 6:24 PM HST
Civil Twilight 6:37 AM HST 6:47 PM HST
Nautical Twilight 6:11 AM HST 7:13 PM HST
Astronomical Twilight 5:45 AM HST 7:39 PM HST
Moon 7:51 AM HST (2/11) 8:09 PM HST (2/11)
Length of Visible Light 12h 09m
Length of Day
11h 24m
Waxing Crescent, 3% of the Moon is Illuminated
Feb 11
Waxing Crescent
Feb 17
First Quarter
Feb 25
Full
Mar 4
Last Quarter
Mar 11
New

Hourly Weather History & Observations

Time (HST) Temp. Dew Point Humidity Pressure Visibility Wind Dir Wind Speed Gust Speed Precip Events Conditions
12:12 AM 69.8 °F 64.4 °F 83% 30.22 in 10.0 mi NE 9.2 mph - N/A   Mostly Cloudy
12:23 AM 69.8 °F 62.6 °F 78% 30.22 in 10.0 mi NE 12.7 mph 19.6 mph N/A   Mostly Cloudy
12:32 AM 69.8 °F 62.6 °F 78% 30.22 in 10.0 mi NE 10.4 mph - N/A   Mostly Cloudy
12:54 AM 70.0 °F 63.0 °F 78% 30.22 in 10.0 mi NE 10.4 mph 25.3 mph N/A   Mostly Cloudy
1:54 AM 69.1 °F 62.1 °F 78% 30.21 in 10.0 mi NE 12.7 mph 20.7 mph 0.00 in   Scattered Clouds
2:54 AM 69.1 °F 63.0 °F 81% 30.20 in 10.0 mi NE 12.7 mph 23.0 mph N/A   Partly Cloudy
3:54 AM 69.1 °F 62.1 °F 78% 30.19 in 10.0 mi NE 9.2 mph 17.3 mph N/A   Clear
4:28 AM 69.8 °F 62.6 °F 78% 30.17 in 10.0 mi NE 11.5 mph 23.0 mph N/A   Mostly Cloudy
4:54 AM 69.1 °F 62.1 °F 78% 30.17 in 10.0 mi NE 12.7 mph 23.0 mph N/A   Mostly Cloudy
5:04 AM 69.8 °F 62.6 °F 78% 30.16 in 10.0 mi NE 13.8 mph 20.7 mph N/A   Scattered Clouds
5:17 AM 69.8 °F 62.6 °F 78% 30.17 in 10.0 mi NE 9.2 mph 20.7 mph N/A   Mostly Cloudy
5:50 AM 69.8 °F 62.6 °F 78% 30.18 in 10.0 mi NE 10.4 mph 18.4 mph N/A   Scattered Clouds
5:54 AM 69.1 °F 62.1 °F 78% 30.19 in 10.0 mi NE 12.7 mph 18.4 mph N/A   Scattered Clouds
6:54 AM 69.1 °F 64.0 °F 84% 30.21 in 10.0 mi NE 10.4 mph 18.4 mph 0.00 in   Scattered Clouds
7:54 AM 69.1 °F 64.0 °F 84% 30.23 in 10.0 mi ENE 11.5 mph 19.6 mph N/A   Scattered Clouds
8:54 AM 69.1 °F 64.0 °F 84% 30.23 in 7.0 mi NNE 16.1 mph 26.5 mph 0.00 in Rain Light Rain
9:01 AM 69.8 °F 64.4 °F 83% 30.22 in 7.0 mi NNE 16.1 mph 25.3 mph 0.00 in Rain Light Rain
9:54 AM 72.0 °F 64.0 °F 76% 30.23 in 6.0 mi NE 13.8 mph 23.0 mph 0.00 in   Haze
10:54 AM 73.0 °F 63.0 °F 71% 30.23 in 10.0 mi NE 18.4 mph 27.6 mph N/A   Scattered Clouds
11:54 AM 73.0 °F 63.0 °F 71% 30.21 in 10.0 mi NE 18.4 mph 26.5 mph 0.00 in   Scattered Clouds
12:54 PM 75.0 °F 64.0 °F 69% 30.19 in 10.0 mi NE 13.8 mph 26.5 mph N/A   Scattered Clouds
1:54 PM 71.1 °F 63.0 °F 75% 30.18 in 10.0 mi NNE 6.9 mph 20.7 mph N/A   Scattered Clouds
2:54 PM 72.0 °F 64.0 °F 76% 30.16 in 10.0 mi NE 16.1 mph 23.0 mph N/A   Scattered Clouds
3:01 PM 71.6 °F 64.4 °F 78% 30.14 in 7.0 mi NNE 15.0 mph 23.0 mph 0.00 in Rain Light Rain
3:08 PM 69.8 °F 64.4 °F 83% 30.14 in 7.0 mi NNE 19.6 mph 29.9 mph 0.00 in Rain Light Rain
3:54 PM 72.0 °F 64.0 °F 76% 30.14 in 10.0 mi NE 20.7 mph 31.1 mph 0.00 in   Scattered Clouds
4:54 PM 70.0 °F 64.0 °F 81% 30.15 in 7.0 mi NNE 15.0 mph 25.3 mph 0.00 in Rain Light Rain
5:54 PM 69.1 °F 62.1 °F 78% 30.16 in 10.0 mi NNE 16.1 mph 27.6 mph 0.00 in Rain Light Rain
6:01 PM 69.8 °F 62.6 °F 78% 30.15 in 10.0 mi NNE 18.4 mph 27.6 mph 0.00 in Rain Light Rain
6:08 PM 68.0 °F 62.6 °F 83% 30.15 in 7.0 mi NNE 16.1 mph 27.6 mph 0.00 in Rain Light Rain
6:54 PM 69.1 °F 60.1 °F 73% 30.19 in 10.0 mi NNE 13.8 mph 27.6 mph 0.00 in   Scattered Clouds
7:01 PM 69.8 °F 60.8 °F 73% 30.18 in 10.0 mi NNE 13.8 mph 27.6 mph N/A   Overcast
7:26 PM 69.8 °F 59.0 °F 68% 30.18 in 10.0 mi NNE 15.0 mph 26.5 mph N/A   Scattered Clouds
7:54 PM 69.1 °F 59.0 °F 70% 30.20 in 10.0 mi NNE 17.3 mph 26.5 mph N/A   Clear
8:54 PM 69.1 °F 60.1 °F 73% 30.22 in 10.0 mi NE 13.8 mph 24.2 mph N/A   Scattered Clouds
9:54 PM 69.1 °F 60.1 °F 73% 30.24 in 10.0 mi NE 12.7 mph 21.9 mph N/A   Scattered Clouds
10:54 PM 68.0 °F 59.0 °F 73% 30.23 in 10.0 mi NE 10.4 mph 18.4 mph N/A   Clear
11:54 PM 68.0 °F 59.0 °F 73% 30.23 in 10.0 mi NE 10.4 mph 21.9 mph N/A   Clear